Date String (YYYY-MM-DD hh:mm:ss) UTC,Instrument flags,Ambient pressure (hPa),Sample flow (lpm),Bypass flow (lpm),Sample temperature (°C),Ambient temperature (°C),ASC tube jacket temperature (°C),LED temperature (°C),Box temperature (°C),Sample RH (%),Span deviation,Mass concentration (μg/m³),Mass concentration (μg/m³),Mass concentration (μg/m³)
DateTimeUTC,F1_M11,P_M11,Q1_M11,Q2_M11,T1_M11,T2_M11,T3_M11,T4_M11,T5_M11,U1_M11,ZSPAN_M11,X0_M11,X2_M11,X1_M11
2022-11-21 11:00:00,,0828.9,5.01,0.00,22.2,20.8,00.0,31.2,24.0,07.0,0000.0,0004.23,0002.09,0001.83
2022-11-21 11:01:00,,0828.9,5.00,0.00,22.2,20.7,00.0,31.2,24.0,07.0,0000.0,0004.21,0002.09,0001.85
2022-11-21 11:02:00,,0828.9,5.02,0.00,22.2,20.7,00.0,31.1,24.0,07.1,0000.0,0004.19,0002.11,0001.89
2022-11-21 11:03:00,,0828.9,4.98,0.00,22.2,20.7,00.0,31.1,24.0,07.1,0000.0,0004.21,0002.16,0001.95
2022-11-21 11:04:00,,0828.9,5.01,0.00,22.2,20.7,00.0,31.1,24.0,07.0,0000.0,0004.24,0002.20,0001.99
2022-11-21 11:05:00,,0829.0,4.99,0.00,22.1,20.6,00.0,31.1,24.0,07.1,0000.0,0004.36,0002.25,0002.03
2022-11-21 11:06:00,,0829.0,5.00,0.00,22.1,20.6,00.0,31.1,23.9,07.1,0000.0,0004.56,0002.30,0002.05
2022-11-21 11:07:00,,0829.0,5.01,0.00,22.1,20.6,00.0,31.1,23.9,07.1,0000.0,0004.55,0002.30,0002.07
2022-11-21 11:08:00,,0829.0,4.99,0.00,22.1,21.1,00.0,31.0,24.0,07.1,0000.0,0004.49,0002.30,0002.08
2022-11-21 11:09:00,,0829.0,5.00,0.00,22.2,22.0,00.0,31.0,24.2,07.1,0000.0,0003.96,0002.31,0002.09
2022-11-21 11:10:00,,0829.0,5.00,0.00,22.3,22.3,00.0,31.0,24.3,07.1,0000.0,0003.05,0002.29,0002.09
2022-11-21 11:11:00,,0829.0,5.00,0.00,22.3,22.0,00.0,31.1,24.3,07.0,0000.0,0003.03,0002.30,0002.11
2022-11-21 11:12:00,,0828.9,5.02,0.00,22.3,21.7,00.0,31.1,24.3,07.1,0000.0,0003.09,0002.33,0002.13
2022-11-21 11:13:00,,0829.0,4.98,0.00,22.3,21.4,00.0,31.2,24.2,07.0,0000.0,0003.15,0002.37,0002.14
2022-11-21 11:14:00,,0829.0,5.01,0.00,22.3,21.3,00.0,31.2,24.2,07.1,0000.0,0003.27,0002.43,0002.18
2022-11-21 11:15:00,,0829.0,4.98,0.00,22.3,21.1,00.0,31.2,24.2,07.1,0000.0,0003.37,0002.50,0002.23
2022-11-21 11:16:00,,0829.0,5.02,0.00,22.3,21.0,00.0,31.2,24.1,07.1,0000.0,0003.32,0002.54,0002.30
2022-11-21 11:17:00,,0829.0,4.98,0.00,22.3,21.0,00.0,31.2,24.1,07.2,0000.0,0003.21,0002.61,0002.42
2022-11-21 11:18:00,,0829.0,5.02,0.00,22.3,20.9,00.0,31.2,24.1,07.2,0000.0,0003.33,0002.70,0002.51
2022-11-21 11:19:00,,0829.0,4.99,0.00,22.2,20.9,00.0,31.2,24.1,07.2,0000.0,0003.54,0002.81,0002.62
2022-11-21 11:20:00,,0829.1,4.98,0.00,22.2,20.8,00.0,31.2,24.1,07.2,0000.0,0004.91,0002.95,0002.72
2022-11-21 11:21:00,,0829.1,5.02,0.00,22.2,20.8,00.0,31.2,24.0,07.2,0000.0,0005.25,0003.11,0002.85
2022-11-21 11:22:00,,0829.0,4.99,0.00,22.2,20.7,00.0,31.2,24.0,07.2,0000.0,0005.45,0003.20,0002.97
2022-11-21 11:23:00,,0829.1,5.00,0.00,22.2,20.7,00.0,31.1,24.0,07.3,0000.0,0005.60,0003.27,0003.09
2022-11-21 11:24:00,,0829.1,5.01,0.00,22.2,20.7,00.0,31.1,23.9,07.3,0000.0,0005.71,0003.34,0003.18
2022-11-21 11:25:00,,0829.0,4.99,0.00,22.2,20.7,00.0,31.1,23.9,07.3,0000.0,0005.84,0003.42,0003.27
2022-11-21 11:26:00,,0829.1,5.02,0.00,22.1,20.7,00.0,31.1,23.9,07.3,0000.0,0006.10,0003.54,0003.35
2022-11-21 11:27:00,,0829.1,4.98,0.00,22.1,20.7,00.0,31.1,23.9,07.4,0000.0,0006.55,0003.65,0003.44
2022-11-21 11:28:00,,0829.0,5.02,0.00,22.1,20.7,00.0,31.1,23.9,07.4,0000.0,0007.22,0003.76,0003.52
2022-11-21 11:29:00,,0829.1,5.00,0.00,22.2,21.3,00.0,31.0,24.0,07.4,0000.0,0007.35,0003.86,0003.63
2022-11-21 11:30:00,,0829.1,5.01,0.00,22.3,22.2,00.0,31.0,24.2,07.4,0000.0,0007.41,0003.96,0003.72
2022-11-21 11:31:00,,0829.0,4.99,0.00,22.3,22.3,00.0,31.1,24.3,07.4,0000.0,0006.39,0004.02,0003.81
2022-11-21 11:32:00,,0829.1,4.99,0.00,22.3,22.0,00.0,31.1,24.3,07.3,0000.0,0006.32,0004.08,0003.88
2022-11-21 11:33:00,,0829.1,5.01,0.00,22.3,21.7,00.0,31.2,24.3,07.3,0000.0,0006.43,0004.14,0003.94
2022-11-21 11:34:00,,0829.1,5.00,0.00,22.3,21.5,00.0,31.2,24.2,07.3,0000.0,0006.73,0004.21,0004.00
2022-11-21 11:35:00,,0829.1,4.99,0.00,22.3,21.3,00.0,31.2,24.2,07.3,0000.0,0006.90,0004.27,0004.04
2022-11-21 11:36:00,,0829.0,5.01,0.00,22.3,21.2,00.0,31.2,24.2,07.3,0000.0,0006.95,0004.28,0004.06
2022-11-21 11:37:00,,0829.1,5.00,0.00,22.3,21.1,00.0,31.2,24.2,07.3,0000.0,0006.82,0004.23,0004.04
2022-11-21 11:38:00,,0829.1,4.99,0.00,22.3,21.0,00.0,31.2,24.1,07.3,0000.0,0006.51,0004.17,0004.00
2022-11-21 11:39:00,,0829.1,5.00,0.00,22.3,20.9,00.0,31.2,24.1,07.3,0000.0,0006.05,0004.12,0003.93
2022-11-21 11:40:00,,0829.0,5.00,0.00,22.3,20.8,00.0,31.2,24.1,07.3,0000.0,0005.97,0004.06,0003.85
2022-11-21 11:41:00,,0829.0,5.01,0.00,22.2,20.8,00.0,31.2,24.1,07.3,0000.0,0005.76,0003.97,0003.77
2022-11-21 11:42:00,,0829.0,5.00,0.00,22.2,20.8,00.0,31.2,24.0,07.3,0000.0,0005.59,0003.87,0003.68
2022-11-21 11:43:00,,0829.0,5.01,0.00,22.2,20.8,00.0,31.1,24.0,07.3,0000.0,0005.36,0003.77,0003.58
2022-11-21 11:44:00,,0829.1,5.00,0.00,22.2,20.8,00.0,31.1,24.0,07.3,0000.0,0005.19,0003.68,0003.51
2022-11-21 11:45:00,,0829.1,5.00,0.00,22.2,20.8,00.0,31.1,24.0,07.3,0000.0,0004.89,0003.61,0003.45
2022-11-21 11:46:00,,0829.2,5.00,0.00,22.2,20.8,00.0,31.1,24.0,07.3,0000.0,0004.70,0003.54,0003.39
2022-11-21 11:47:00,,0829.2,4.99,0.00,22.2,20.8,00.0,31.1,23.9,07.3,0000.0,0004.64,0003.50,0003.34
2022-11-21 11:48:00,,0829.2,5.00,0.00,22.2,20.8,00.0,31.1,23.9,07.3,0000.0,0004.73,0003.50,0003.31
2022-11-21 11:49:00,,0829.2,5.00,0.00,22.2,20.7,00.0,31.1,23.9,07.3,0000.0,0004.95,0003.48,0003.29
2022-11-21 11:50:00,,0829.2,4.99,0.00,22.2,20.8,00.0,31.1,23.9,07.3,0000.0,0005.05,0003.45,0003.28
2022-11-21 11:51:00,,0829.3,5.01,0.00,22.2,21.4,00.0,31.0,24.1,07.3,0000.0,0004.95,0003.41,0003.27
2022-11-21 11:52:00,,0829.3,5.00,0.00,22.3,22.2,00.0,31.0,24.3,07.3,0000.0,0004.94,0003.42,0003.26
2022-11-21 11:53:00,,0829.3,4.98,0.00,22.4,22.2,00.0,31.1,24.3,07.2,0000.0,0004.94,0003.42,0003.27
2022-11-21 11:54:00,,0829.2,4.99,0.00,22.4,21.9,00.0,31.1,24.3,07.2,0000.0,0004.97,0003.43,0003.28
2022-11-21 11:55:00,,0829.2,5.00,0.00,22.4,21.7,00.0,31.2,24.3,07.2,0000.0,0005.08,0003.46,0003.28
2022-11-21 11:56:00,,0829.3,5.00,0.00,22.4,21.5,00.0,31.2,24.3,07.2,0000.0,0005.11,0003.47,0003.28
2022-11-21 11:57:00,,0829.3,5.00,0.00,22.4,21.3,00.0,31.2,24.2,07.2,0000.0,0005.21,0003.49,0003.28
2022-11-21 11:58:00,,0829.3,5.01,0.00,22.3,21.2,00.0,31.2,24.2,07.2,0000.0,0005.24,0003.50,0003.28
2022-11-21 11:59:00,,0829.3,5.00,0.00,22.3,21.2,00.0,31.2,24.2,07.2,0000.0,0005.07,0003.46,0003.27
